Regional Weather Roundup
Issued by NWS Columbia, SC

Home | Current Version | Previous Version | Text Only | Print | Product List | Glossary On
Versions: 1 2 3 4 5 6 7 8 9 10 11 12 13 14 15 16 17 18 19 20 21 22 23 24 25 26 27 28
000
ASUS42 KCAE 311810
RWRCAE
REGIONAL WEATHER ROUNDUP
NATIONAL WEATHER SERVICE COLUMBIA SC
200 PM EDT TUE MAY 31 2016

NOTE: "FAIR" INDICATES FEW OR NO CLOUDS BELOW 12,000 FEET WITH NO
SIGNIFICANT WEATHER AND/OR OBSTRUCTIONS TO VISIBILITY.

NOT ALL STATIONS ARE QUALITY CONTROLLED BY THE NATIONAL
WEATHER SERVICE. USE DATA WITH CAUTION...ESPECIALLY
DEWPOINT OBSERVATIONS.

SCZ001>056-GAZ040-063>065-077-311900-
...UPSTATE SOUTH CAROLINA...

CITY           SKY/WX    TMP DP  RH WIND       PRES   REMARKS
ANDERSON       CLOUDY    83  66  56 E3        29.97F
6HR MIN TEMP:  69; 6HR MAX TEMP:  86;

LIBERTY        PTCLDY    84  65  52 CALM      29.97F
6HR MIN TEMP:  65; 6HR MAX TEMP:  86;

SPARTANBURG    CLOUDY    82  63  51 CALM      29.97F
CLEMSON        SUNNY     88  64  44 VRB3      29.98F
6HR MIN TEMP:  72; 6HR MAX TEMP:  88;

GREENVILLE     PTSUNNY   84  62  47 N3        29.98F
6HR MIN TEMP:  72; 6HR MAX TEMP:  86;

GREENWOOD      PTSUNNY   84  65  52 N3        29.97F
6HR MIN TEMP:  71; 6HR MAX TEMP:  87;

GREER          MOSUNNY   82  66  58 S5        29.96F
6HR MIN TEMP:  71; 6HR MAX TEMP:  85;

ROCK HILL      MOSUNNY   85  65  51 CALM      29.96F
6HR MIN TEMP:  69; 6HR MAX TEMP:  86;

CHESTER        PTCLDY    84  63  48 NE3       29.96F
LAURENS        PTCLDY    84  64  51 E3        29.96F


...CENTRAL SOUTH CAROLINA...

CITY           SKY/WX    TMP DP  RH WIND       PRES   REMARKS
COLUMBIA APT   MOSUNNY   88  66  48 NE5       29.92F
6HR MIN TEMP:  72; 6HR MAX TEMP:  89;

COLUMBIA OWENS MOSUNNY   87  67  51 VRB3      29.94F
6HR MIN TEMP:  73; 6HR MAX TEMP:  88;

MCENTIRE ANGB  MOSUNNY   85  69  57 N5        29.93F
6HR MIN TEMP:  71; 6HR MAX TEMP:  85;

ORANGEBURG     MOSUNNY   85  69  58 NE6       29.94F
6HR MIN TEMP:  72; 6HR MAX TEMP:  86;

SUMTER SHAW    MOSUNNY   85  68  58 N6        29.91F
6HR MIN TEMP:  71; 6HR MAX TEMP:  85; 6HR PCP:  0.01;

NEWBERRY       MOCLDY    84  68  58 CALM      29.98F
AIKEN          FAIR      84  66  54 NE10      29.98F
BARNWELL       MOCLDY    88  75  66 CALM      29.95F HX  97
MANNING        FAIR      82  68  61 N8        29.92F
LANCASTER      PTCLDY    84  66  54 NE6       29.95F
WINNSBORO      PTCLDY    86  64  48 NE3       29.95F


...EASTERN AND COASTAL SOUTH CAROLINA...

CITY           SKY/WX    TMP DP  RH WIND       PRES   REMARKS
MYRTLE BEACH   PTSUNNY   79  68  69 W8        29.90F
N MYRTLE BCH   RAIN      74  70  87 NE20G28   29.89S FOG
6HR MIN TEMP:  72; 6HR MAX TEMP:  80; 6HR PCP:  0.02;

CONWAY         MOCLDY    81  70  69 N8        29.89F
MARION         MOCLDY    82  70  65 NE7       29.92F
HARTSVILLE     FAIR      82  66  57 N3        29.93F
FLORENCE       PTSUNNY   85  69  58 N8        29.92F
6HR MIN TEMP:  74; 6HR MAX TEMP:  86;

DARLINGTON     MOSUNNY   84  72  67 NE8       29.93F
6HR MIN TEMP:  70; 6HR MAX TEMP:  84;

CHARLESTON APT PTSUNNY   84  69  60 NW10      29.91F
6HR MIN TEMP:  73; 6HR MAX TEMP:  86;

MOUNT PLEASANT FAIR      84  72  65 NW12      29.90F
WALTERBORO     PTCLDY    86  68  54 N3        29.94F
BEAUFORT       MOSUNNY   85  70  60 N9        29.92F
6HR MIN TEMP:  73; 6HR MAX TEMP:  85;



...EASTERN GEORGIA...

CITY           SKY/WX    TMP DP  RH WIND       PRES   REMARKS
AUGUSTA BUSH F MOSUNNY   87  69  54 E3        29.93F
6HR MIN TEMP:  73; 6HR MAX TEMP:  87;

AUGUSTA DANIEL MOSUNNY   88  67  49 E5        29.95F
6HR MIN TEMP:  73; 6HR MAX TEMP:  88;

THOMSON        PTSUNNY   87  69  54 CALM      29.99F
6HR MIN TEMP:  71; 6HR MAX TEMP:  89;

WASHINGTON     FAIR      88  68  51 E5        29.96F
CLAXTON        FAIR      89  72  57 NE6       29.93F HX  95
6HR MIN TEMP:  71; 6HR MAX TEMP:  90;

SYLVANIA       CLEAR     87  72  59 CALM      29.94F
6HR MIN TEMP:  75; 6HR MAX TEMP:  88;

STATESBORO     SUNNY     88  71  57 E5        29.93F
6HR MIN TEMP:  73; 6HR MAX TEMP:  88;

SAVANNAH       MOSUNNY   89  69  51 CALM      29.92
6HR MIN TEMP:  74; 6HR MAX TEMP:  89;



...SOUTHERN NORTH CAROLINA...

CITY           SKY/WX    TMP DP  RH WIND       PRES   REMARKS
CHARLOTTE      PTSUNNY   85  62  46 CALM      29.96F
6HR MIN TEMP:  73; 6HR MAX TEMP:  87;

WADESBORO      PTCLDY    83  65  55 N6        29.95F
ROCKINGHAM     MOCLDY    82  71  68 N5        29.94F
6HR MIN TEMP:  70; 6HR MAX TEMP:  83;

RUTHERFORDTON  PTSUNNY   83  67  57 E3        29.99F
ASHEVILLE      PTSUNNY   79  60  52 S21G29    30.03F
6HR MIN TEMP:  63; 6HR MAX TEMP:  83;


$$




USA.gov is the U.S. government's official web portal to all federal, state and local government web resources and services.